Time,TemperatureF,DewpointF,PressureIn,WindDirection,WindDirectionDegrees,WindSpeedMPH,WindSpeedGustMPH,Humidity,HourlyPrecipIn,Conditions,Clouds,dailyrainin,SoftwareType,DateUTC
2013-02-20 00:01:00,18.0,12.0,30.14,North,0,6.0,14.0,78,65.12,,,-99.99,,2013-02-20 06:01:00,
2013-02-20 00:11:00,17.0,12.0,30.15,NNE,24,6.0,12.0,79,65.12,,,-99.99,,2013-02-20 06:11:00,
2013-02-20 00:21:00,17.0,12.0,30.15,NNE,24,6.0,12.0,79,65.12,,,-99.99,,2013-02-20 06:21:00,
2013-02-20 00:31:00,17.0,11.0,30.15,NW,305,5.0,13.0,78,65.12,,,-99.99,,2013-02-20 06:31:00,
2013-02-20 00:42:00,17.0,11.0,30.15,NW,305,5.0,13.0,78,65.12,,,-99.99,,2013-02-20 06:42:00,
2013-02-20 00:52:00,17.0,12.0,30.16,NNW,330,4.0,11.0,79,65.12,,,-99.99,,2013-02-20 06:52:00,
2013-02-20 01:01:00,16.0,11.0,30.17,North,3,4.0,14.0,80,65.12,,,-99.99,,2013-02-20 07:01:00,
2013-02-20 01:11:00,16.0,11.0,30.17,North,3,4.0,14.0,80,65.12,,,-99.99,,2013-02-20 07:11:00,
2013-02-20 01:21:00,16.0,11.0,30.16,NNW,345,5.0,13.0,81,65.12,,,-99.99,,2013-02-20 07:21:00,
2013-02-20 01:31:00,16.0,11.0,30.16,NNW,346,5.0,11.0,81,65.12,,,-99.99,,2013-02-20 07:31:00,
2013-02-20 01:41:00,16.0,11.0,30.16,NNW,346,5.0,11.0,81,65.12,,,-99.99,,2013-02-20 07:41:00,
2013-02-20 01:52:00,16.0,11.0,30.17,North,0,7.0,14.0,81,65.12,,,-99.99,,2013-02-20 07:52:00,
2013-02-20 02:05:00,15.0,11.0,30.18,North,0,8.0,13.0,83,65.12,,,-99.99,,2013-02-20 08:05:00,
2013-02-20 02:11:00,14.0,10.0,30.19,North,0,8.0,19.0,82,65.12,,,-99.99,,2013-02-20 08:11:00,
2013-02-20 02:21:00,14.0,10.0,30.19,North,0,8.0,19.0,82,65.12,,,-99.99,,2013-02-20 08:21:00,
2013-02-20 02:31:00,14.0,10.0,30.20,NW,311,4.0,11.0,84,65.12,,,-99.99,,2013-02-20 08:31:00,
2013-02-20 02:41:00,14.0,10.0,30.20,NW,311,4.0,11.0,84,65.12,,,-99.99,,2013-02-20 08:41:00,
2013-02-20 02:52:00,13.0,9.0,30.19,NW,323,7.0,14.0,83,65.12,,,-99.99,,2013-02-20 08:52:00,
2013-02-20 03:01:00,13.0,9.0,30.20,NNW,347,4.0,11.0,83,65.12,,,-99.99,,2013-02-20 09:01:00,
2013-02-20 03:11:00,13.0,9.0,30.20,NNW,347,4.0,11.0,83,65.12,,,-99.99,,2013-02-20 09:11:00,
2013-02-20 03:21:00,13.0,9.0,30.20,North,11,4.0,9.0,85,65.12,,,-99.99,,2013-02-20 09:21:00,
2013-02-20 03:31:00,12.0,9.0,30.20,NNW,347,2.0,7.0,87,65.12,,,-99.99,,2013-02-20 09:31:00,
2013-02-20 03:42:00,12.0,9.0,30.20,NNW,347,2.0,7.0,87,65.12,,,-99.99,,2013-02-20 09:42:00,
2013-02-20 03:52:00,12.0,9.0,30.21,North,1,2.0,8.0,88,65.12,,,-99.99,,2013-02-20 09:52:00,
2013-02-20 04:01:00,12.0,9.0,30.22,NNE,14,3.0,9.0,88,65.12,,,-99.99,,2013-02-20 10:01:00,
2013-02-20 04:12:00,12.0,9.0,30.22,NNE,14,3.0,9.0,88,65.12,,,-99.99,,2013-02-20 10:12:00,
2013-02-20 04:22:00,12.0,9.0,30.22,NNE,17,1.0,6.0,89,65.12,,,-99.99,,2013-02-20 10:22:00,
2013-02-20 04:31:00,12.0,10.0,30.22,North,10,3.0,7.0,90,65.12,,,-99.99,,2013-02-20 10:31:00,
2013-02-20 04:41:00,12.0,10.0,30.22,North,10,3.0,7.0,90,65.12,,,-99.99,,2013-02-20 10:41:00,
2013-02-20 04:52:00,12.0,9.0,30.22,North,11,4.0,10.0,89,65.12,,,-99.99,,2013-02-20 10:52:00,
2013-02-20 05:02:00,11.0,7.0,30.22,North,3,6.0,11.0,85,65.12,,,-99.99,,2013-02-20 11:02:00,
2013-02-20 05:11:00,11.0,8.0,30.22,NW,307,1.0,5.0,87,65.12,,,-99.99,,2013-02-20 11:11:00,
2013-02-20 05:21:00,11.0,8.0,30.22,NW,307,1.0,5.0,87,65.12,,,-99.99,,2013-02-20 11:21:00,
2013-02-20 05:32:00,11.0,8.0,30.23,North,8,2.0,9.0,87,65.12,,,-99.99,,2013-02-20 11:32:00,
2013-02-20 05:41:00,11.0,8.0,30.23,North,8,2.0,9.0,87,65.12,,,-99.99,,2013-02-20 11:41:00,
2013-02-20 05:52:00,11.0,8.0,30.23,North,1,1.0,5.0,87,65.12,,,-99.99,,2013-02-20 11:52:00,
2013-02-20 06:01:00,10.0,7.0,30.24,North,349,1.0,7.0,87,65.12,,,-99.99,,2013-02-20 12:01:00,
2013-02-20 06:12:00,10.0,7.0,30.24,North,349,1.0,7.0,87,65.12,,,-99.99,,2013-02-20 12:12:00,
2013-02-20 06:21:00,10.0,7.0,30.23,NNW,345,4.0,10.0,86,65.12,,,-99.99,,2013-02-20 12:21:00,
2013-02-20 06:32:00,10.0,7.0,30.24,NNE,13,4.0,9.0,86,65.12,,,-99.99,,2013-02-20 12:32:00,
2013-02-20 06:42:00,10.0,7.0,30.24,NNE,13,4.0,9.0,86,65.12,,,-99.99,,2013-02-20 12:42:00,
2013-02-20 06:52:00,10.0,7.0,30.25,NNE,18,3.0,7.0,87,65.12,,,-99.99,,2013-02-20 12:52:00,
2013-02-20 07:01:00,10.0,7.0,30.27,NW,305,4.0,9.0,86,65.12,,,-99.99,,2013-02-20 13:01:00,
2013-02-20 07:11:00,10.0,7.0,30.27,NW,305,4.0,9.0,86,65.12,,,-99.99,,2013-02-20 13:11:00,
2013-02-20 07:22:00,10.0,6.0,30.27,NE,37,3.0,7.0,85,65.12,,,-99.99,,2013-02-20 13:22:00,
2013-02-20 07:31:00,10.0,6.0,30.28,North,359,5.0,10.0,84,65.12,,,-99.99,,2013-02-20 13:31:00,
2013-02-20 07:42:00,10.0,6.0,30.28,North,359,5.0,10.0,84,65.12,,,-99.99,,2013-02-20 13:42:00,
2013-02-20 07:52:00,10.0,6.0,30.29,ENE,62,4.0,9.0,83,65.12,,,-99.99,,2013-02-20 13:52:00,
2013-02-20 08:01:00,11.0,6.0,30.29,NNE,25,3.0,9.0,80,65.12,,,-99.99,,2013-02-20 14:01:00,
2013-02-20 08:11:00,11.0,6.0,30.29,NNE,25,3.0,9.0,80,65.12,,,-99.99,,2013-02-20 14:11:00,
2013-02-20 08:21:00,11.0,6.0,30.29,NNE,23,4.0,8.0,81,65.12,,,-99.99,,2013-02-20 14:21:00,
2013-02-20 08:32:00,12.0,7.0,30.29,North,7,4.0,8.0,80,65.12,,,-99.99,,2013-02-20 14:32:00,
2013-02-20 08:42:00,12.0,7.0,30.28,NNW,347,2.0,8.0,80,65.12,,,-99.99,,2013-02-20 14:42:00,
2013-02-20 08:52:00,12.0,7.0,30.28,NNW,347,2.0,8.0,80,65.12,,,-99.99,,2013-02-20 14:52:00,
2013-02-20 09:01:00,13.0,8.0,30.28,NE,55,2.0,6.0,80,65.12,,,-99.99,,2013-02-20 15:01:00,
2013-02-20 09:11:00,13.0,8.0,30.27,North,0,3.0,8.0,79,65.12,,,-99.99,,2013-02-20 15:11:00,
2013-02-20 09:22:00,13.0,8.0,30.27,North,0,3.0,8.0,79,65.12,,,-99.99,,2013-02-20 15:22:00,
2013-02-20 09:32:00,14.0,8.0,30.27,NNE,13,1.0,6.0,78,65.12,,,-99.99,,2013-02-20 15:32:00,
2013-02-20 09:42:00,15.0,9.0,30.28,NNW,339,3.0,7.0,76,65.12,,,-99.99,,2013-02-20 15:42:00,
2013-02-20 09:52:00,15.0,9.0,30.28,NNW,339,3.0,7.0,76,65.12,,,-99.99,,2013-02-20 15:52:00,
2013-02-20 10:01:00,16.0,10.0,30.29,NNW,338,1.0,6.0,76,65.12,,,-99.99,,2013-02-20 16:01:00,
2013-02-20 10:11:00,16.0,9.0,30.30,NW,305,1.0,6.0,75,65.12,,,-99.99,,2013-02-20 16:11:00,
2013-02-20 10:21:00,16.0,9.0,30.30,NW,305,1.0,6.0,75,65.12,,,-99.99,,2013-02-20 16:21:00,
2013-02-20 10:32:00,17.0,10.0,30.30,West,270,1.0,7.0,74,65.12,,,-99.99,,2013-02-20 16:32:00,
2013-02-20 10:41:00,18.0,11.0,30.30,WNW,284,3.0,10.0,74,65.12,,,-99.99,,2013-02-20 16:41:00,
2013-02-20 10:52:00,18.0,11.0,30.30,WNW,284,3.0,10.0,74,65.12,,,-99.99,,2013-02-20 16:52:00,
2013-02-20 11:01:00,19.0,11.0,30.29,WNW,283,3.0,8.0,72,65.12,,,-99.99,,2013-02-20 17:01:00,
2013-02-20 11:11:00,19.0,11.0,30.29,NNW,343,2.0,7.0,71,65.12,,,-99.99,,2013-02-20 17:11:00,
2013-02-20 11:21:00,19.0,11.0,30.29,NNW,343,2.0,7.0,71,65.12,,,-99.99,,2013-02-20 17:21:00,
2013-02-20 11:32:00,20.0,13.0,30.30,NNW,347,1.0,7.0,74,65.12,,,-99.99,,2013-02-20 17:32:00,
2013-02-20 11:41:00,20.0,13.0,30.29,NNE,25,3.0,10.0,73,65.12,,,-99.99,,2013-02-20 17:41:00,
2013-02-20 11:52:00,20.0,13.0,30.29,NNE,25,3.0,10.0,73,65.12,,,-99.99,,2013-02-20 17:52:00,
2013-02-20 12:02:00,22.0,13.0,30.30,North,350,2.0,7.0,67,65.12,,,-99.99,,2013-02-20 18:02:00,
2013-02-20 12:11:00,22.0,13.0,30.30,North,350,2.0,7.0,67,65.12,,,-99.99,,2013-02-20 18:11:00,
2013-02-20 12:21:00,22.0,15.0,30.30,North,6,3.0,8.0,73,65.12,,,-99.99,,2013-02-20 18:21:00,
2013-02-20 12:32:00,22.0,14.0,30.29,North,1,3.0,9.0,71,65.12,,,-99.99,,2013-02-20 18:32:00,
2013-02-20 12:42:00,22.0,14.0,30.29,North,1,3.0,9.0,71,65.12,,,-99.99,,2013-02-20 18:42:00,
2013-02-20 12:52:00,23.0,14.0,30.29,NNE,13,4.0,8.0,69,65.12,,,-99.99,,2013-02-20 18:52:00,
2013-02-20 13:01:00,23.0,16.0,30.29,North,359,2.0,10.0,73,65.12,,,-99.99,,2013-02-20 19:01:00,
2013-02-20 13:11:00,23.0,16.0,30.29,North,359,2.0,10.0,73,65.12,,,-99.99,,2013-02-20 19:11:00,
2013-02-20 13:21:00,24.0,16.0,30.28,NNE,20,4.0,10.0,70,65.12,,,-99.99,,2013-02-20 19:21:00,
2013-02-20 13:31:00,23.0,14.0,30.27,NNW,335,4.0,10.0,69,65.12,,,-99.99,,2013-02-20 19:31:00,
2013-02-20 13:41:00,23.0,14.0,30.27,NNW,335,4.0,10.0,69,65.12,,,-99.99,,2013-02-20 19:41:00,
2013-02-20 13:52:00,24.0,16.0,30.27,North,350,3.0,10.0,72,65.12,,,-99.99,,2013-02-20 19:52:00,
2013-02-20 14:01:00,24.0,16.0,30.26,North,11,3.0,9.0,72,65.12,,,-99.99,,2013-02-20 20:01:00,
2013-02-20 14:11:00,25.0,17.0,30.26,NNW,343,2.0,8.0,70,65.12,,,-99.99,,2013-02-20 20:11:00,
2013-02-20 14:21:00,25.0,17.0,30.26,NNW,343,2.0,8.0,70,65.12,,,-99.99,,2013-02-20 20:21:00,
2013-02-20 14:31:00,25.0,17.0,30.26,North,6,3.0,11.0,71,65.12,,,-99.99,,2013-02-20 20:31:00,
2013-02-20 14:41:00,25.0,17.0,30.26,North,10,3.0,10.0,71,65.12,,,-99.99,,2013-02-20 20:41:00,
2013-02-20 14:51:00,25.0,17.0,30.26,North,10,3.0,10.0,71,65.12,,,-99.99,,2013-02-20 20:51:00,
2013-02-20 15:01:00,25.0,17.0,30.26,North,6,4.0,11.0,71,65.12,,,-99.99,,2013-02-20 21:01:00,
2013-02-20 15:11:00,25.0,17.0,30.25,NNE,18,4.0,11.0,71,65.12,,,-99.99,,2013-02-20 21:11:00,
2013-02-20 15:21:00,25.0,17.0,30.25,NNE,18,4.0,11.0,71,65.12,,,-99.99,,2013-02-20 21:21:00,
2013-02-20 15:31:00,26.0,18.0,30.24,North,349,2.0,7.0,72,65.12,,,-99.99,,2013-02-20 21:31:00,
2013-02-20 15:41:00,26.0,18.0,30.24,North,349,2.0,7.0,72,65.12,,,-99.99,,2013-02-20 21:41:00,
2013-02-20 15:52:00,25.0,17.0,30.24,NNE,23,5.0,9.0,70,65.12,,,-99.99,,2013-02-20 21:52:00,
2013-02-20 16:01:00,25.0,17.0,30.24,NNE,25,2.0,10.0,71,65.12,,,-99.99,,2013-02-20 22:01:00,
2013-02-20 16:11:00,26.0,19.0,30.24,NNE,25,2.0,8.0,74,65.12,,,-99.99,,2013-02-20 22:11:00,
2013-02-20 16:21:00,26.0,19.0,30.24,NNE,25,2.0,8.0,74,65.12,,,-99.99,,2013-02-20 22:21:00,
2013-02-20 16:31:00,25.0,18.0,30.24,North,359,4.0,8.0,73,65.12,,,-99.99,,2013-02-20 22:31:00,
2013-02-20 16:42:00,25.0,18.0,30.24,North,359,4.0,8.0,73,65.12,,,-99.99,,2013-02-20 22:42:00,
2013-02-20 16:52:00,25.0,18.0,30.25,North,3,2.0,8.0,74,65.12,,,-99.99,,2013-02-20 22:52:00,
2013-02-20 17:01:00,25.0,18.0,30.25,North,7,3.0,9.0,74,65.12,,,-99.99,,2013-02-20 23:01:00,
2013-02-20 17:12:00,25.0,18.0,30.26,NNE,13,3.0,6.0,75,65.12,,,-99.99,,2013-02-20 23:12:00,
2013-02-20 17:22:00,25.0,18.0,30.26,NNE,13,3.0,6.0,75,65.12,,,-99.99,,2013-02-20 23:22:00,
2013-02-20 17:31:00,25.0,19.0,30.26,ESE,104,0.0,3.0,76,65.12,,,-99.99,,2013-02-20 23:31:00,
2013-02-20 17:42:00,25.0,19.0,30.26,ESE,104,0.0,3.0,76,65.12,,,-99.99,,2013-02-20 23:42:00,
2013-02-20 17:52:00,25.0,19.0,30.26,NNE,32,0.0,2.0,78,65.12,,,-99.99,,2013-02-20 23:52:00,
2013-02-20 18:02:00,25.0,19.0,30.27,North,0,0.0,0.0,78,65.12,,,-99.99,,2013-02-21 00:02:00,
2013-02-20 18:11:00,25.0,19.0,30.27,North,0,0.0,0.0,78,65.12,,,-99.99,,2013-02-21 00:11:00,
2013-02-20 18:21:00,24.0,18.0,30.27,North,354,1.0,7.0,78,65.12,,,-99.99,,2013-02-21 00:21:00,
2013-02-20 18:32:00,25.0,20.0,30.27,North,8,0.0,4.0,80,65.12,,,-99.99,,2013-02-21 00:32:00,
2013-02-20 18:42:00,24.0,18.0,30.28,North,353,0.0,3.0,79,65.12,,,-99.99,,2013-02-21 00:42:00,
2013-02-20 18:52:00,24.0,18.0,30.28,North,353,0.0,3.0,79,65.12,,,-99.99,,2013-02-21 00:52:00,
2013-02-20 19:01:00,24.0,19.0,30.28,NNE,17,1.0,6.0,81,65.12,,,-99.99,,2013-02-21 01:01:00,
2013-02-20 19:11:00,24.0,19.0,30.28,NNE,17,1.0,6.0,81,65.12,,,-99.99,,2013-02-21 01:11:00,
2013-02-20 19:21:00,24.0,20.0,30.28,North,7,1.0,5.0,83,65.12,,,-99.99,,2013-02-21 01:21:00,
2013-02-20 19:32:00,24.0,20.0,30.27,ENE,66,0.0,3.0,84,65.12,,,-99.99,,2013-02-21 01:32:00,
2013-02-20 19:41:00,24.0,20.0,30.27,ENE,66,0.0,3.0,84,65.12,,,-99.99,,2013-02-21 01:41:00,
2013-02-20 19:52:00,24.0,20.0,30.27,NE,56,1.0,4.0,85,65.12,,,-99.99,,2013-02-21 01:52:00,
2013-02-20 20:01:00,24.0,20.0,30.28,ENE,65,0.0,3.0,85,65.12,,,-99.99,,2013-02-21 02:01:00,
2013-02-20 20:11:00,24.0,20.0,30.28,ENE,65,0.0,3.0,85,65.12,,,-99.99,,2013-02-21 02:11:00,
2013-02-20 20:21:00,24.0,20.0,30.27,ESE,108,2.0,6.0,83,65.12,,,-99.99,,2013-02-21 02:21:00,
2013-02-20 20:32:00,24.0,20.0,30.27,NNW,339,1.0,6.0,83,65.12,,,-99.99,,2013-02-21 02:32:00,
2013-02-20 20:42:00,24.0,20.0,30.27,NNW,339,1.0,6.0,83,65.12,,,-99.99,,2013-02-21 02:42:00,
2013-02-20 20:52:00,24.0,20.0,30.27,NNW,339,1.0,6.0,83,65.12,,,-99.99,,2013-02-21 02:52:00,
2013-02-20 21:01:00,23.0,19.0,30.27,North,0,0.0,0.0,85,65.12,,,-99.99,,2013-02-21 03:01:00,
2013-02-20 21:12:00,23.0,19.0,30.27,North,0,0.0,0.0,85,65.12,,,-99.99,,2013-02-21 03:12:00,
2013-02-20 21:21:00,23.0,19.0,30.27,North,0,0.0,0.0,85,65.12,,,-99.99,,2013-02-21 03:21:00,
2013-02-20 21:31:00,23.0,19.0,30.27,North,0,0.0,0.0,85,65.12,,,-99.99,,2013-02-21 03:31:00,
2013-02-20 21:41:00,23.0,19.0,30.27,North,0,0.0,0.0,85,65.12,,,-99.99,,2013-02-21 03:41:00,
2013-02-20 21:52:00,23.0,20.0,30.27,North,0,0.0,0.0,87,65.12,,,-99.99,,2013-02-21 03:52:00,
2013-02-20 22:01:00,22.0,19.0,30.28,East,83,0.0,4.0,87,65.12,,,-99.99,,2013-02-21 04:01:00,
2013-02-20 22:11:00,22.0,19.0,30.28,East,83,0.0,4.0,87,65.12,,,-99.99,,2013-02-21 04:11:00,
2013-02-20 22:21:00,22.0,19.0,30.27,North,0,0.0,0.0,88,65.12,,,-99.99,,2013-02-21 04:21:00,
2013-02-20 22:32:00,22.0,19.0,30.28,NNE,32,0.0,3.0,88,65.12,,,-99.99,,2013-02-21 04:32:00,
2013-02-20 22:42:00,22.0,19.0,30.28,NNE,32,0.0,3.0,88,65.12,,,-99.99,,2013-02-21 04:42:00,
2013-02-20 22:52:00,21.0,18.0,30.27,East,87,0.0,2.0,89,65.12,,,-99.99,,2013-02-21 04:52:00,
2013-02-20 23:02:00,21.0,18.0,30.27,North,0,0.0,0.0,89,65.12,,,-99.99,,2013-02-21 05:02:00,
2013-02-20 23:12:00,21.0,18.0,30.27,North,0,0.0,0.0,89,65.12,,,-99.99,,2013-02-21 05:12:00,
2013-02-20 23:22:00,21.0,19.0,30.27,ENE,77,2.0,5.0,91,65.12,,,-99.99,,2013-02-21 05:22:00,
2013-02-20 23:33:00,21.0,19.0,30.28,East,84,2.0,7.0,90,65.12,,,-99.99,,2013-02-21 05:33:00,
2013-02-20 23:43:00,21.0,19.0,30.28,East,84,2.0,7.0,90,65.12,,,-99.99,,2013-02-21 05:43:00,
2013-02-20 23:59:00,21.0,19.0,30.28,East,80,2.0,5.0,91,65.12,,,-99.99,,2013-02-21 05:59:00,